Flag for U.S.A. Weather past 2 weeks in South Bend, Indiana, U.S.A.

Now
52 °F

Passing clouds.


Feels Like: 48 °F
Forecast: 44 / 62 °F
Wind: 10 mph from North

Location: Michiana Regional Airport

Current Time: Sep 22, 2014 at 12:50:19 AM

Latest Report: Sep 21, 2014 at 11:54 PM


Visibility: 10 mi

Pressure: 30.10 "Hg

Humidity: 77%

Dew point: 45 °F

Location of South BendLocation

Historic Weather in South Bend — Graph

°F

South Bend temperature yesterday

Maximum temperature yesterday: 68 °F (at 1:54 AM)
Minimum temperature yesterday: 52 °F (at 11:54 PM)
Average temperature yesterday: 61 °F

Past Weeks' High & Low Weather Summary

 TemperatureHumidityPressure
High80 °F (Sep 20, 2:54 PM)94% (Sep 10, 2:54 PM)30.36 "Hg (Sep 10, 2:54 PM)
Low43 °F (Sep 14, 1:54 AM)37% (Sep 7, 4:54 PM)29.58 "Hg (Sep 10, 3:54 PM)
Average60 °F75%30.09 "Hg
* Reported Sep 6 11:54 PM — Sep 21 11:54 PM, South Bend, Weather by CustomWeather, © 2014

Note: Actual official high and low records may vary slightly from our data, if they occured in-between our weather recording intervals... More about our weather records

Advertising

South Bend weather history for previous 24 hours

 ConditionsComfort  
Time TempWeatherWind HumidityBarometerVisibility
11:54 PM
Sep 21
52 °FPassing clouds.10 mph77%30.10 "Hg10 mi
10:54 PM54 °FPassing clouds.12 mph74%30.10 "Hg10 mi
9:54 PM55 °FOvercast.14 mph74%30.08 "Hg10 mi
8:54 PM56 °FOvercast.15 mph75%30.06 "Hg10 mi
7:54 PM56 °FPartly sunny.15 mph75%30.02 "Hg10 mi
6:54 PM58 °FBroken clouds.14 mph70%30.00 "Hg10 mi
6:04 PM59 °FMostly cloudy.21 mph69%29.97 "Hg10 mi
4:54 PM59 °FMostly cloudy.23 mph69%29.93 "Hg10 mi
3:54 PM60 °FMostly cloudy.20 mph75%29.91 "Hg10 mi
3:01 PM59 °FLight rain. Fog.20 mph87%29.90 "Hg5 mi
1:54 PM62 °FCloudy.20 mph70%29.85 "Hg10 mi
12:54 PM59 °FLight rain. Mostly cloudy.17 mph81%29.84 "Hg9 mi
11:54 AM62 °FMore clouds than sun.24 mph65%29.80 "Hg10 mi
10:54 AM62 °FBroken clouds.22 mph67%29.79 "Hg10 mi
9:54 AM63 °FBroken clouds.26 mph65%29.78 "Hg10 mi
8:54 AM61 °FSunny.15 mph72%29.78 "Hg10 mi
7:54 AM60 °FPassing clouds.16 mph75%29.77 "Hg10 mi
6:54 AM62 °FPassing clouds.16 mph78%29.75 "Hg10 mi
5:54 AM64 °FMostly cloudy.16 mph78%29.74 "Hg10 mi
4:54 AM65 °FPassing clouds.15 mph81%29.71 "Hg10 mi
3:54 AM66 °FPassing clouds.15 mph84%29.68 "Hg10 mi
2:54 AM68 °FFog.14 mph93%29.68 "Hg6 mi
1:54 AM68 °FLow clouds.12 mph90%29.71 "Hg8 mi
12:54 AM67 °FPartly cloudy.9 mph93%29.74 "Hg9 mi
Weather by CustomWeather, © 2014

See weather overviewHow to use our weather pages